This demonstration page uses our WeatherBlox Daily Observations layout. Learn more.

Left ArrowRight Arrow

Hourly Observations for June 3, 2020

Temp ( °F °C ) Dew Point ( °F °C ) Humidity (%) Winds ( mph kmh ) Pressure ( in mb ) Visibility ( mi km ) Precip ( " mm )
12:56 am 00:56 Clear 80 26.5 68 19.8 67 67 SW 8 13 29.83 1010 10 16 0.00 0.00
1:56 am 01:56 Clear 78 25.3 68 20.1 73 73 S 6 9 29.83 1010 10 16 0.00 0.00
2:56 am 02:56 Mostly Cloudy 76 24.7 68 19.9 75 75 SSW 3 6 29.82 1010 10 16 0.00 0.00
3:56 am 03:56 Cloudy with Light Rain 73 22.5 67 19.6 84 84 NW 6 9 29.81 1010 10 16 0.00 0.00
4:56 am 04:56 Mostly Clear 72 22.4 66 19 81 81 N 6 9 29.82 1010 10 16 0.00 0.00
5:56 am 05:56 Mostly Sunny 71 21.8 66 19 84 84 WNW 9 15 29.84 1011 10 16 0.00 0.00
6:56 am 06:56 Mostly Cloudy 71 21.6 65 18.2 81 81 NNW 9 15 29.85 1011 10 16 0.00 0.00
7:56 am 07:56 Partly Cloudy 71 21.5 64 17.7 79 79 N 6 9 29.87 1012 10 16 0.00 0.00
8:56 am 08:56 Mostly Cloudy 72 22.4 65 18.1 77 77 NNE 9 15 29.88 1012 10 16 0.00 0.00
9:56 am 09:56 Sunny 77 24.9 66 19 70 70 NNE 10 17 29.87 1012 10 16 0.00 0.00
12:56 pm 12:56 Sunny 86 30.2 65 18.6 50 50 N 8 13 29.84 1011 10 16 0.00 0.00
1:56 pm 13:56 Sunny 89 31.6 64 17.5 43 43 NNE 9 15 29.83 1010 10 16 0.00 0.00
2:56 pm 14:56 Sunny 91 32.8 63 17 39 39 ENE 8 13 29.81 1010 10 16 0.00 0.00
3:56 pm 15:56 Sunny 92 33.1 60 15.6 35 35 Calm 29.78 1009 10 16 0.00 0.00
4:56 pm 16:56 Sunny 93 33.7 60 15.6 34 34 ESE 5 7 29.76 1008 10 16 0.00 0.00
5:56 pm 17:56 Sunny 92 33.2 58 14.2 32 32 SSE 5 7 29.74 1007 10 16 0.00 0.00
6:56 pm 18:56 Sunny 94 34.2 58 14.6 31 31 Calm 29.74 1007 10 16 0.00 0.00
7:56 pm 19:56 Sunny 87 30.8 72 22.1 60 60 Calm 29.73 1007 10 16 0.00 0.00
8:56 pm 20:56 Clear 78 25.5 67 19.6 70 70 Calm 29.75 1007 10 16 0.00 0.00
9:56 pm 21:56 Clear 76 24.3 67 19.3 74 74 N 5 7 29.77 1008 10 16 0.00 0.00
10:56 pm 22:56 Clear 77 24.9 66 18.8 69 69 Calm 29.75 1007 10 16 0.00 0.00
11:56 pm 23:56 Clear 78 25.3 64 18 64 64 W 6 9 29.74 1007 10 16 0.00 0.00

Powered by AerisWeather